Location: Bothwell
(42.3833°S, 147.0000°E)
Time: 20:02:18
(UTC+11:00)

BlueWalker 3 - Pass Details

Date: 25 September 2023
Orbit: 489 x 504 km, 53.2° (Epoch: 29 November)

Event Time Altitude Azimuth Distance (km) Brightness Sun altitude
Rises 19:13:45 0° 233° (SW) 2,619 6.9 -12.3°
Reaches altitude 10° 19:15:57 10° 232° (SW) 1,726 5.8 -12.7°
Maximum altitude 19:19:52 85° 145° (SE) 510 1.9 -13.4°
Enters shadow 19:22:15 22° 55° (NE) 1,124 3.1 -13.8°
